Theta_e
327 321 317 314 312 310 312 302 294 292 288 286 285 284 288 293 291 292 293 293 293 296 296 300 296 297 297 295 297 302 306 291 292 287 289 295 310 323 324 330 338 344 346 348 346 345 345 348 352 352 352 352 353 353 352 352 352 352 351 351 351 351 351 350 349 349 349 349 349 348 348 348 348 348 348 348 347 346 344 342 342 341 340 340 339 338 336 337 340 341 342 341 340 340 341 342 342
323 318 315 315 312 310 306 297 289 284 285 284 287 286 291 291 292 290 291 292 293 299 299 305 306 307 307 308 308 304 303 309 310 296 309 312 318 326 334 333 342 343 346 348 346 345 345 346 349 351 351 352 352 353 352 352 352 351 351 351 351 351 350 349 349 348 349 347 347 347 347 346 347 348 347 347 346 345 343 343 342 342 342 340 339 339 336 335 339 339 340 340 340 340 340 340 341
320 316 313 311 310 305 301 295 292 281 283 282 284 286 291 292 290 289 292 294 297 299 298 299 298 297 299 302 302 298 298 310 313 312 315 319 322 322 330 336 343 345 347 348 347 345 345 346 347 349 350 351 352 352 351 351 351 351 351 351 351 350 350 349 348 347 347 347 347 347 346 346 346 347 347 346 346 344 343 343 342 342 341 340 340 339 336 335 337 339 339 339 340 339 339 340 341
313 315 312 308 308 300 294 289 286 285 286 282 285 290 291 290 291 292 293 295 296 295 295 297 298 300 301 301 302 302 301 309 315 313 314 317 316 321 327 340 341 347 348 348 347 344 344 345 346 350 351 351 351 351 351 350 351 351 350 350 350 350 349 348 348 347 347 346 347 346 347 347 346 346 347 346 346 343 343 343 342 341 341 339 338 338 336 334 336 337 338 338 339 339 339 339 340
312 316 310 308 302 300 291 288 284 282 284 282 285 286 290 290 293 291 294 293 292 292 295 295 298 300 302 300 300 298 301 306 305 314 314 316 319 322 326 339 345 347 347 348 346 344 343 343 346 348 350 350 351 350 350 350 350 350 350 350 349 349 349 349 348 347 347 347 347 346 346 346 346 346 346 345 344 343 343 342 341 340 340 339 338 337 335 333 335 337 337 337 337 338 338 338 339
310 311 311 309 303 300 292 289 288 285 285 287 287 290 290 292 292 291 294 294 294 293 294 295 296 297 305 307 305 304 307 302 306 316 316 323 325 326 331 341 346 346 347 347 345 343 343 342 345 345 350 350 350 349 348 349 350 350 350 349 349 349 349 348 348 348 348 347 347 347 347 346 346 346 346 344 342 342 342 341 340 339 339 338 338 337 334 331 333 334 335 336 337 337 337 338 339
312 304 303 303 300 296 291 284 285 284 292 289 290 290 293 292 293 291 294 295 296 296 295 301 301 300 300 304 304 311 314 313 316 317 319 322 325 327 333 343 345 345 346 347 345 343 342 342 347 348 348 349 350 350 350 350 350 349 349 349 349 348 348 348 348 348 348 348 348 347 346 346 346 345 344 343 342 343 341 340 339 339 338 337 336 336 332 331 333 334 335 336 336 335 336 337 339
311 307 301 296 290 289 286 285 287 284 292 290 292 293 292 293 291 291 292 293 294 295 298 300 296 294 296 301 299 311 308 316 318 319 322 323 325 327 338 343 343 343 345 346 345 342 343 341 347 348 348 348 350 350 350 350 350 349 349 348 348 348 348 348 348 347 347 347 347 347 346 346 345 344 343 342 342 342 341 340 339 338 337 337 336 335 331 329 331 332 333 335 335 335 336 336 337
307 305 299 294 288 286 284 286 288 287 289 291 292 293 303 293 291 291 292 292 294 294 296 298 294 294 294 301 300 304 310 311 316 322 324 325 326 329 340 340 341 341 344 345 345 344 341 340 344 347 347 349 349 350 350 350 349 349 349 348 348 348 347 347 347 347 346 346 346 345 345 345 345 344 343 342 342 341 340 339 339 338 337 336 335 334 330 328 330 331 333 335 335 335 334 335 335
303 302 295 292 288 287 282 286 286 289 290 292 292 295 294 292 292 292 292 293 295 294 296 295 294 295 296 300 299 303 312 306 310 323 325 325 326 333 336 335 337 342 343 344 345 345 342 343 340 343 345 347 349 349 349 349 349 349 348 348 347 346 347 347 347 347 346 346 346 345 345 345 344 343 343 342 342 342 340 339 339 338 337 336 334 332 328 327 329 331 333 334 333 333 332 333 334
297 296 295 288 284 282 285 285 283 288 292 291 291 291 292 291 291 291 292 293 293 295 296 296 298 296 296 296 296 301 302 304 320 321 323 325 326 331 336 338 340 343 343 344 345 345 345 343 340 339 342 343 346 348 348 348 348 348 347 346 347 347 347 347 347 346 346 346 345 345 345 345 344 343 343 342 342 342 340 340 339 338 337 336 333 331 327 326 327 330 332 332 332 331 330 330 332
297 293 290 284 284 284 283 286 288 288 289 291 295 294 292 292 292 293 293 295 295 294 295 296 298 295 295 294 297 301 300 308 311 317 323 325 328 330 336 338 341 342 343 342 343 344 344 344 344 341 338 338 342 345 345 346 347 347 346 347 346 346 346 347 346 346 346 345 345 345 345 345 343 343 343 342 342 341 341 339 339 338 337 336 333 329 326 325 326 328 330 329 328 329 328 328 328
293 292 288 287 288 285 285 285 287 290 287 290 293 295 292 293 294 293 292 293 292 294 296 296 297 296 293 294 295 297 305 309 305 313 323 325 327 331 334 335 337 338 339 341 341 341 343 343 344 344 340 334 335 338 340 341 344 346 346 347 347 346 347 347 346 345 345 346 345 345 345 344 343 343 342 342 342 341 340 339 338 337 336 335 332 327 325 324 324 326 326 326 325 326 326 326 326
293 292 287 289 284 285 285 286 285 288 287 290 290 292 294 295 294 292 294 294 293 293 296 297 298 294 294 293 296 295 297 306 312 320 321 323 326 329 330 332 332 333 334 337 337 338 340 342 343 343 342 342 342 336 334 338 341 344 345 344 344 345 346 347 346 346 345 344 344 343 342 342 343 343 343 342 342 341 339 338 338 337 335 334 330 324 322 323 323 324 324 324 324 324 323 323 323
298 291 286 284 284 285 285 286 289 285 288 289 296 294 295 296 292 291 294 292 294 296 295 298 297 297 293 294 292 296 300 301 314 319 320 321 321 322 324 326 326 327 329 329 330 332 332 337 342 342 343 343 341 342 341 338 335 339 341 341 341 342 343 343 344 342 341 342 341 339 337 336 335 336 338 340 340 338 337 337 337 336 335 334 330 329 325 323 322 322 322 322 322 322 322 321 321
295 291 285 286 286 285 287 288 285 286 289 290 294 292 293 296 293 296 295 295 295 296 295 298 296 296 296 295 294 296 300 302 317 319 318 315 313 313 315 317 317 317 318 320 321 319 321 331 334 338 342 341 340 340 340 339 334 333 335 336 338 340 341 341 340 338 336 335 335 333 329 331 330 332 329 332 333 337 334 332 336 336 335 334 332 329 328 325 322 321 320 321 320 321 322 322 321
294 288 286 280 286 286 288 288 287 288 287 290 291 294 294 295 295 296 295 295 297 296 294 294 296 297 294 295 296 298 300 313 318 317 315 312 311 311 312 315 315 316 317 316 316 316 318 322 324 328 337 341 340 340 339 339 336 330 331 330 333 336 337 337 337 330 326 324 326 323 325 334 334 331 331 330 326 331 326 328 334 336 335 334 332 330 329 327 324 323 322 321 319 319 317 317 319
292 287 283 285 282 285 288 289 290 288 291 292 293 292 292 293 295 298 297 296 292 293 293 293 295 296 296 297 297 298 307 319 317 316 311 308 307 308 310 310 314 315 312 314 315 315 315 318 320 323 324 325 334 339 339 338 335 333 337 335 334 334 331 328 330 334 331 333 323 327 334 332 333 333 333 331 329 328 327 325 329 334 336 334 333 331 330 328 327 326 324 322 321 318 312 302 304
288 284 281 284 284 290 291 289 291 291 292 292 292 290 293 293 294 296 295 293 293 295 294 292 294 296 298 299 299 300 313 316 315 313 309 307 306 308 307 305 309 309 313 313 314 315 314 315 317 320 319 320 324 336 339 338 336 337 337 337 336 331 331 333 334 332 334 332 330 333 332 334 334 333 331 329 329 323 326 323 328 331 333 331 333 333 332 331 330 329 326 323 320 315 306 304 302
291 286 287 283 288 290 290 291 292 292 293 292 292 293 292 295 295 296 296 291 293 293 293 293 294 294 296 298 299 298 308 312 311 310 307 304 304 306 304 305 305 305 308 309 311 313 314 314 316 316 317 318 319 330 339 338 337 337 337 337 337 336 334 334 335 334 333 332 333 334 334 333 333 333 327 323 327 328 325 322 326 327 328 327 326 327 329 329 328 325 323 319 314 309 307 305 304
293 287 283 292 289 292 295 291 292 292 292 292 292 292 293 294 294 296 292 293 292 292 292 295 295 294 297 296 297 298 302 307 307 307 305 302 302 303 304 305 306 305 303 304 306 311 313 314 315 316 316 317 317 322 335 337 338 336 336 336 336 334 333 333 331 333 333 333 334 334 335 334 334 332 330 329 329 329 329 330 328 325 323 322 322 321 320 318 316 313 312 311 309 309 308 307 306
289 291 289 290 289 294 295 292 293 291 291 292 291 294 293 296 296 292 293 292 291 294 296 295 296 297 298 297 297 298 299 302 304 304 303 302 302 303 303 302 303 302 303 306 307 306 310 313 313 314 315 315 317 318 325 336 337 336 335 336 335 335 334 334 333 334 334 334 334 335 335 333 333 331 330 330 329 330 331 330 328 325 323 323 322 323 319 316 315 313 312 310 309 308 308 307 307
293 292 290 289 289 295 294 294 293 291 293 292 291 294 294 295 294 291 292 295 292 293 293 294 294 297 299 298 298 298 299 300 301 303 302 301 302 303 303 303 304 305 303 304 303 304 307 310 311 312 314 315 316 318 323 328 335 337 336 336 335 334 335 334 333 334 334 334 333 332 332 330 330 329 329 329 329 331 331 330 329 326 325 324 321 323 320 318 317 315 313 311 309 309 309 308 307
289 293 291 295 291 294 294 297 292 290 293 292 291 294 296 293 294 293 291 293 291 292 293 293 293 297 298 298 297 299 300 300 300 301 301 302 303 303 303 303 303 302 302 303 303 304 303 307 308 310 314 316 317 318 326 329 334 337 337 331 335 332 332 332 331 331 331 330 330 330 329 331 330 329 328 328 327 331 331 331 330 329 325 323 324 324 322 320 320 318 316 314 313 311 310 309 308
292 294 293 293 292 292 293 292 291 290 291 293 293 295 295 291 293 292 292 294 293 294 293 294 295 296 296 297 297 297 297 297 299 298 299 299 300 301 300 301 302 301 303 303 304 303 303 305 307 309 315 318 318 321 327 330 333 333 333 332 332 328 329 328 328 328 327 326 327 327 327 329 329 330 328 327 327 327 328 328 329 328 326 325 325 324 323 321 319 318 316 315 315 314 312 310 309
293 295 292 292 295 293 292 293 291 291 294 292 294 292 290 290 291 294 296 292 294 293 294 294 295 295 296 296 297 297 297 298 297 298 300 298 299 301 300 301 300 303 303 303 303 302 305 307 308 311 314 317 319 328 327 330 330 329 328 328 327 324 326 326 325 324 325 325 324 325 325 325 327 327 326 326 325 324 324 323 323 325 324 323 323 321 321 320 318 317 316 314 315 315 313 311 312
292 292 293 294 294 292 294 294 293 290 294 292 293 292 293 292 293 292 292 293 292 293 293 293 294 295 295 295 295 295 297 297 298 298 298 297 298 301 301 299 301 303 303 304 303 304 309 311 310 309 312 316 326 327 327 328 327 325 324 324 325 323 322 322 322 323 323 323 323 323 324 323 324 324 324 323 323 322 321 321 319 320 320 320 320 319 319 318 318 317 316 315 315 314 313 312 312
293 293 293 293 290 292 292 292 292 292 295 290 293 291 290 292 292 293 295 293 293 293 292 293 292 293 294 294 294 294 296 296 296 298 299 298 300 300 300 301 301 302 304 305 306 309 312 310 310 311 315 323 325 325 324 324 323 322 320 320 319 319 319 319 318 319 318 320 321 322 322 323 322 322 322 321 321 320 319 318 318 318 317 318 318 317 316 315 313 312 311 311 311 311 310 311 311
294 293 294 290 289 295 293 293 292 292 295 291 292 294 291 290 291 293 291 293 292 292 292 292 292 292 292 292 293 294 295 295 295 297 299 299 297 298 301 300 302 303 303 306 309 311 312 309 311 314 318 323 323 322 320 319 318 317 317 316 317 317 317 317 316 316 318 318 319 320 320 321 321 320 320 319 317 318 317 316 315 315 315 315 314 313 312 310 308 307 306 307 307 309 309 310 311
295 292 291 292 288 288 293 292 291 292 294 290 293 287 286 289 294 292 293 292 291 291 291 291 291 290 291 291 293 293 293 294 295 297 298 297 297 298 300 300 301 303 306 308 310 311 312 313 312 315 319 321 319 317 315 314 313 313 313 312 313 314 314 314 313 313 313 314 315 316 317 317 318 318 317 317 316 316 315 314 313 312 312 311 311 309 308 307 305 304 303 304 304 306 306 308 308
292 291 288 286 286 285 291 291 291 293 293 290 294 287 287 289 291 290 290 292 293 293 292 291 291 290 290 291 292 294 294 294 296 296 295 295 297 297 299 299 301 304 305 309 309 309 310 311 313 314 314 314 313 313 312 311 311 311 310 309 309 310 311 311 311 311 311 311 311 311 313 314 315 315 315 315 314 314 312 310 309 309 307 306 304 303 303 302 303 302 302 302 301 302 303 305 306
288 289 285 280 286 283 288 291 291 293 293 291 294 286 290 293 294 290 290 290 291 293 292 291 291 291 291 291 292 293 294 293 294 295 295 296 297 298 298 300 302 304 306 310 308 309 309 310 311 311 312 312 311 310 310 310 310 309 309 307 307 307 308 309 309 310 309 309 309 310 310 311 312 312 312 312 311 310 309 307 307 305 303 301 300 300 299 298 298 297 297 301 301 300 302 302 303
282 288 282 285 285 283 289 292 290 292 291 292 292 289 286 290 289 289 290 290 290 291 291 291 291 291 291 292 292 292 292 293 293 294 294 296 297 297 299 301 303 304 307 308 307 308 308 309 309 310 310 309 308 308 308 307 307 306 306 305 304 304 305 306 306 307 307 307 307 307 307 308 308 308 308 308 308 307 306 305 306 303 300 298 297 296 295 296 295 294 292 294 299 298 299 298 298
283 283 285 281 285 285 287 288 291 290 291 290 290 289 289 291 289 289 290 290 289 290 292 291 291 292 292 291 291 292 292 293 294 295 294 296 297 297 299 302 304 306 307 307 306 308 307 307 307 308 308 308 307 307 306 305 303 303 302 302 302 301 301 302 303 304 304 304 305 304 305 305 305 305 304 304 303 303 302 301 300 298 297 295 294 293 291 291 290 292 290 290 294 297 296 296 295
281 285 285 286 285 285 287 287 292 291 290 289 288 287 290 293 293 290 290 290 290 291 293 293 291 291 291 291 292 292 292 293 295 295 294 295 296 297 298 300 304 305 307 306 306 307 307 306 306 306 306 306 305 304 303 301 301 300 301 300 299 299 299 299 301 301 301 301 302 302 302 302 302 302 302 302 301 300 299 298 297 297 295 293 291 290 289 289 289 290 291 290 291 292 294 294 294
284 285 284 282 286 285 286 288 288 291 288 288 287 288 291 292 293 293 289 290 290 292 291 291 291 291 291 291 292 292 293 293 294 294 294 295 296 297 298 300 304 306 307 306 306 306 306 305 305 305 305 304 303 302 301 300 300 300 298 298 298 297 297 296 296 297 299 299 299 300 300 300 300 299 300 299 299 297 297 296 295 295 294 292 290 289 288 288 289 290 291 292 291 290 290 291 292
288 285 284 285 285 285 287 287 289 288 289 288 289 289 290 292 292 294 290 288 289 290 290 291 292 292 291 291 292 292 292 294 292 293 294 295 295 296 298 300 303 305 306 305 305 305 305 305 304 303 303 303 302 301 301 301 300 299 300 299 296 295 294 294 294 294 295 296 296 297 296 296 297 297 297 297 296 295 294 293 293 292 291 290 289 288 287 286 287 289 289 291 292 290 287 286 287
289 286 286 286 284 286 288 290 290 288 290 284 285 287 288 290 292 293 290 287 289 290 291 291 292 292 292 292 292 292 293 291 290 292 293 293 295 295 297 300 303 304 305 304 304 305 305 305 304 303 303 303 302 302 301 302 302 301 299 295 293 293 294 294 292 292 293 293 293 293 293 294 294 294 294 294 294 293 291 290 289 288 288 288 287 287 286 288 286 287 288 286 284 286 283 283 284
287 288 285 285 286 285 289 289 289 289 289 288 287 287 289 291 292 292 290 291 292 293 293 294 294 293 293 293 293 293 291 291 291 292 292 293 294 295 297 300 303 305 305 304 305 304 304 304 304 303 303 303 303 303 302 300 298 296 296 294 293 289 289 290 291 291 291 290 290 291 291 291 292 292 292 292 291 290 289 288 287 287 286 287 285 284 284 284 283 284 286 287 284 283 283 284 283
287 285 286 285 283 286 285 286 287 291 289 284 284 285 289 291 292 292 293 293 293 294 293 293 294 294 294 294 294 293 292 292 291 291 292 293 294 296 298 300 303 305 304 303 304 304 304 303 303 303 303 303 302 301 297 295 294 293 292 290 289 289 288 290 289 290 289 289 289 289 289 290 290 289 289 289 288 288 287 287 286 285 285 284 285 284 283 283 283 283 284 285 286 283 280 282 283
284 287 285 284 286 286 288 287 287 287 288 286 287 287 289 291 292 293 293 290 292 295 293 292 293 293 295 294 292 294 293 292 292 291 292 292 293 295 298 300 303 304 304 303 304 304 304 304 303 302 303 302 299 296 294 293 291 290 290 289 289 289 289 289 289 288 288 288 288 287 287 287 287 287 286 286 287 286 285 285 285 284 284 283 284 284 283 283 282 282 282 283 283 283 280 279 282
284 285 289 290 288 288 286 285 288 283 283 283 287 281 280 282 285 288 292 288 291 292 292 294 296 296 294 293 294 293 293 293 293 292 292 293 294 295 298 300 303 304 304 304 304 305 305 304 304 303 301 298 296 294 293 292 291 291 291 291 290 288 287 288 288 287 286 286 285 285 285 285 285 285 285 285 285 285 285 284 284 284 284 284 284 284 283 282 282 282 282 282 281 282 282 280 280
285 286 288 291 290 287 287 286 286 281 280 286 285 283 281 280 288 287 287 286 289 292 290 293 294 295 293 294 294 293 292 291 291 292 292 292 293 295 298 300 302 304 305 304 303 304 304 303 303 301 298 297 295 294 293 293 292 293 294 294 292 291 289 288 287 287 286 284 284 283 283 283 283 284 283 284 284 284 284 283 284 284 283 283 284 283 283 282 283 282 282 282 282 283 282 280 280
284 285 285 288 287 286 286 285 287 283 281 284 285 282 281 284 289 289 291 291 292 294 295 296 297 296 294 294 293 292 292 292 292 292 293 293 293 295 298 300 302 304 304 304 303 303 303 301 300 298 297 295 294 294 293 293 293 293 293 292 291 290 290 287 286 285 285 284 283 283 283 282 282 283 283 283 283 283 283 283 283 283 283 283 284 283 283 282 283 283 282 282 282 281 281 281 279
285 286 286 286 288 286 285 286 282 283 283 282 281 284 283 281 283 285 289 289 290 293 294 295 297 297 296 295 294 292 292 292 292 292 292 292 293 295 298 300 302 303 303 303 302 301 301 299 298 297 296 295 294 294 293 293 294 293 292 290 288 287 286 285 286 286 285 284 282 282 282 282 282 282 282 282 282 283 284 283 283 283 283 282 283 282 282 282 282 282 281 282 282 281 281 280 280
287 286 286 285 284 282 280 280 285 280 280 281 283 283 281 285 282 288 284 286 289 292 294 296 296 296 295 294 293 291 289 290 291 292 293 293 293 295 298 300 301 302 302 302 300 299 298 297 296 296 295 295 294 293 293 293 292 291 290 289 287 285 285 284 285 284 283 282 282 281 281 282 281 282 281 281 282 282 282 283 282 282 282 282 282 281 281 281 281 281 281 281 281 280 280 280 280
289 287 288 286 283 281 279 280 279 280 277 283 285 284 286 282 283 288 288 289 292 294 294 294 294 293 293 292 291 290 289 290 290 291 291 292 291 293 296 298 300 301 300 301 298 297 297 296 295 295 295 294 294 293 293 291 290 290 290 288 287 285 284 284 283 283 282 281 281 281 281 281 281 281 281 281 282 282 282 282 282 281 282 283 282 281 281 281 281 281 281 280 280 280 280 280 280
291 287 283 283 285 279 278 273 276 275 277 281 283 285 285 281 279 283 290 289 288 291 293 294 293 292 291 290 288 288 288 289 289 289 290 291 291 292 294 297 299 299 299 299 298 297 296 295 294 294 293 293 293 292 291 290 290 290 289 288 287 286 284 283 283 282 281 281 281 281 281 281 281 281 281 281 281 281 282 281 282 281 281 281 280 280 280 280 280 280 280 280 279 279 279 279 278
289 287 288 282 275 274 273 272 275 274 278 279 279 283 281 283 288 285 288 290 293 291 292 294 293 293 292 288 288 287 287 287 289 289 290 291 291 292 293 296 298 298 298 298 297 296 296 294 293 293 292 293 292 291 290 290 290 289 288 288 287 286 285 284 283 282 282 282 282 281 281 281 280 280 280 281 280 281 281 281 281 281 280 280 280 280 280 280 280 280 279 279 279 278 278 278 278
288 289 284 280 274 273 269 269 267 271 275 279 281 282 282 282 286 293 294 296 296 295 292 292 292 293 293 290 288 287 287 288 289 289 290 291 292 292 293 295 297 298 298 298 297 296 295 294 294 293 293 292 291 290 290 289 289 288 288 287 287 286 285 284 283 283 282 282 282 281 281 281 281 281 281 281 281 281 280 281 281 280 280 280 280 280 280 280 280 279 279 279 278 278 278 278 277
290 287 290 285 279 271 270 270 274 276 275 278 279 279 277 278 285 286 292 294 294 294 291 289 289 290 289 286 286 285 286 286 288 289 290 291 292 292 293 294 296 297 298 298 297 296 295 294 294 293 292 291 290 289 289 289 288 287 287 287 287 286 285 284 283 283 282 282 282 281 281 281 281 281 281 280 281 280 280 280 280 280 280 280 280 280 280 279 279 279 279 279 278 278 278 278 277
285 284 286 282 284 279 280 274 271 271 272 273 275 281 280 284 286 287 286 286 288 289 290 291 293 289 285 286 287 287 287 288 287 288 289 290 291 291 292 293 294 296 297 297 296 296 295 294 294 294 292 290 289 289 288 288 287 286 286 286 285 285 284 283 283 282 282 282 281 281 281 280 280 280 280 280 280 280 280 280 280 280 280 280 280 280 279 279 279 279 279 279 278 279 278 277 277
285 286 286 286 284 286 280 274 276 275 272 279 276 280 283 284 290 293 294 289 290 288 288 289 291 289 284 286 286 286 287 287 287 288 289 289 289 290 292 292 293 295 296 297 296 296 295 294 293 293 291 290 289 289 288 287 286 286 285 285 284 283 282 282 282 281 281 281 281 280 280 280 280 280 280 280 280 280 280 280 280 279 279 279 279 279 279 279 279 279 279 278 278 277 277 277 277
286 282 285 286 286 285 283 278 271 269 274 276 279 281 280 280 283 283 288 289 292 289 290 291 290 285 286 289 287 287 287 287 287 287 287 289 290 290 291 292 293 294 295 296 296 296 296 295 294 292 290 289 289 288 287 286 285 285 284 284 282 282 282 281 281 281 281 280 280 280 279 280 280 280 281 281 280 280 279 280 279 279 279 279 279 278 278 278 278 278 278 278 278 277 277 276 276
287 284 288 289 282 280 281 276 275 269 273 276 276 277 281 284 286 286 287 288 291 292 293 291 291 291 290 290 287 285 285 285 286 287 287 288 289 290 290 291 291 292 293 295 296 295 295 294 293 292 290 290 288 287 286 285 285 285 284 283 282 281 281 280 280 281 280 280 280 280 280 280 280 280 280 280 279 279 279 279 279 279 279 278 278 278 278 278 278 277 277 277 277 277 277 276 276
288 289 289 285 283 278 278 281 275 276 272 269 278 277 282 284 286 288 292 290 291 292 291 291 293 293 293 291 290 286 286 287 287 287 287 288 289 289 290 290 290 290 290 292 294 294 294 293 292 292 291 289 287 286 285 283 283 284 284 283 281 281 281 280 280 280 280 280 280 280 280 280 280 280 280 279 279 279 279 279 278 278 278 278 278 277 277 277 277 277 277 276 276 276 276 275 275
284 285 283 286 283 285 281 280 278 277 269 269 272 278 280 283 288 289 293 292 292 291 292 292 293 292 292 291 290 287 286 286 287 287 287 287 288 288 289 289 290 289 289 290 292 293 293 292 291 291 290 288 287 286 284 283 283 283 282 281 281 280 280 280 280 280 280 280 280 281 280 280 280 279 279 279 279 279 279 279 278 278 278 278 277 277 276 276 276 276 275 275 275 275 275 274 275
290 290 287 289 285 281 278 280 281 274 277 277 269 280 286 285 287 292 290 291 291 291 292 292 291 291 291 290 287 287 286 286 287 287 287 287 287 288 287 287 287 287 288 288 288 290 291 291 291 290 289 288 287 286 285 284 283 283 282 281 281 280 280 280 280 280 280 280 280 280 279 279 279 279 279 279 279 279 278 278 278 278 277 277 277 277 276 276 276 275 274 275 274 274 273 273 273
Wind_Speed
7 5 4 2 3 3 1 6 1 2 5 1 1 1 2 0 1 1 1 2 1 3 1 2 3 3 1 2 6 4 1 3 2 4 2 2 2 3 2 3 3 7 8 7 7 7 7 8 8 8 10 11 11 11 11 11 11 11 12 13 13 13 14 15 14 14 14 14 14 15 15 16 15 15 16 16 16 16 16 15 15 14 15 15 15 14 14 15 15 15 15 15 16 16 16 15 15
4 4 3 1 1 2 1 2 4 2 6 3 0 1 2 2 1 4 3 1 2 2 1 8 8 10 10 10 6 2 3 0 3 1 2 3 4 2 1 4 8 9 7 6 5 4 5 5 9 9 11 11 10 10 11 11 10 11 11 12 12 13 14 14 14 14 14 13 14 14 14 15 15 15 16 16 15 16 15 14 14 15 15 15 15 14 14 15 15 15 15 15 15 15 15 15 15
3 5 3 3 3 3 3 4 1 1 5 2 2 4 1 0 4 4 2 3 5 6 2 5 6 4 1 1 4 2 1 0 0 1 0 2 1 2 0 3 6 9 9 5 5 4 4 5 9 9 11 11 11 10 10 11 11 10 10 11 12 13 13 14 13 13 13 12 12 13 14 14 15 14 14 15 15 15 14 14 14 15 15 15 15 14 14 15 15 15 15 15 15 15 15 15 15
1 3 1 3 2 3 1 4 5 7 4 5 1 2 1 3 5 5 3 2 3 2 1 0 3 2 2 7 1 1 1 1 1 1 1 1 1 1 1 3 5 6 7 5 4 4 4 6 10 9 10 11 12 11 10 10 10 11 10 10 11 11 12 13 13 13 13 12 12 13 14 14 14 14 15 15 15 14 14 14 15 15 15 15 14 14 14 15 15 15 15 16 16 16 16 16 16
2 2 2 3 4 1 4 1 5 3 3 5 6 4 3 4 5 4 1 2 3 4 1 1 3 2 0 4 0 1 2 2 3 3 1 2 2 3 2 3 5 8 7 6 5 4 3 8 9 8 10 11 11 11 11 10 10 10 10 10 10 11 12 12 12 12 12 12 13 13 14 14 14 14 15 15 14 13 14 14 15 14 14 14 14 14 14 15 16 16 16 16 16 16 16 16 17
4 1 3 1 0 2 6 2 3 1 4 5 4 4 5 6 5 5 0 1 0 3 3 2 2 4 2 1 1 1 1 2 1 1 1 0 3 1 2 4 5 7 6 6 5 4 4 8 8 7 10 11 11 11 10 10 10 10 10 10 10 10 11 12 12 12 12 12 13 13 13 14 14 14 15 14 13 13 14 14 13 13 13 13 14 14 14 15 16 16 16 16 16 16 16 16 17
1 3 4 4 3 5 3 5 4 3 2 6 3 3 7 5 6 3 1 1 1 4 0 1 3 3 4 1 1 1 1 3 0 1 1 4 4 1 4 4 5 7 6 5 5 4 5 8 8 9 6 8 10 8 9 9 9 9 9 10 10 10 11 11 11 12 12 12 13 13 13 12 13 14 15 13 13 13 13 12 12 12 13 13 13 14 14 15 15 16 16 16 16 17 16 17 17
2 2 2 3 1 4 3 2 3 3 0 4 2 5 5 5 4 3 1 3 1 1 1 2 1 4 1 3 1 1 4 1 2 3 2 3 3 2 6 5 5 5 5 4 4 3 6 9 9 8 9 9 9 9 9 8 9 8 8 8 9 10 10 10 11 12 12 12 12 12 12 12 13 13 13 13 12 12 11 11 11 12 12 13 13 13 14 15 15 15 16 16 16 16 16 17 17
4 6 0 7 4 3 3 2 0 2 3 1 2 3 2 3 3 3 2 0 0 0 3 1 1 2 2 1 0 2 3 4 3 2 4 5 3 3 6 6 5 4 4 4 3 3 3 6 9 9 8 8 9 10 9 9 8 8 8 9 9 9 10 10 11 11 11 12 12 12 12 12 12 12 13 13 12 12 11 11 11 11 12 12 13 13 14 14 15 16 16 16 16 16 16 17 17
2 1 0 3 4 4 2 1 4 2 1 2 3 2 3 3 2 0 5 2 1 1 1 1 1 1 2 3 1 2 1 4 4 3 6 5 3 3 4 5 5 7 5 4 3 3 3 5 8 8 8 8 8 8 9 8 8 8 8 9 9 8 9 10 11 12 12 12 12 12 12 12 12 12 13 12 12 12 11 11 10 11 11 12 13 13 14 14 15 16 16 16 15 16 16 17 17
1 6 3 5 5 3 2 3 2 1 1 2 3 4 5 3 3 2 1 3 0 2 1 3 3 3 3 1 3 3 3 3 1 1 3 4 3 4 5 4 4 5 6 5 4 3 3 3 6 7 7 8 6 7 7 8 7 8 9 10 11 9 9 10 10 12 12 12 12 12 12 12 12 12 12 12 13 12 11 11 10 11 11 12 13 13 14 15 15 16 16 15 15 15 16 16 17
1 1 2 4 3 6 5 5 2 2 3 2 2 1 2 5 3 3 2 5 1 0 2 3 3 5 3 1 2 1 4 1 1 0 2 3 3 3 5 5 6 4 6 5 4 3 3 3 4 5 7 6 8 8 7 7 7 7 8 9 10 10 10 10 11 11 11 11 11 12 12 12 11 11 11 12 12 12 11 11 10 10 11 12 13 13 14 15 15 16 15 15 15 15 16 17 17
4 2 6 6 1 1 3 3 4 0 1 3 4 1 2 5 5 6 4 3 0 4 0 3 4 2 2 2 2 4 1 2 1 0 1 3 3 3 5 6 5 6 6 5 6 4 4 3 4 4 4 7 7 7 7 8 7 8 7 8 8 9 7 8 11 10 11 12 11 11 11 10 9 10 10 12 12 12 11 11 10 11 12 12 13 14 14 15 15 15 15 15 15 15 16 17 17
4 5 4 2 1 4 6 3 1 4 3 4 2 1 0 2 2 6 8 4 1 1 1 0 4 3 1 1 1 3 5 2 1 1 2 3 3 5 6 4 5 5 4 5 5 4 2 4 4 4 4 4 3 5 7 7 7 7 7 7 6 7 7 7 8 9 10 9 9 8 8 9 9 9 9 11 12 11 11 10 10 11 12 12 13 14 14 15 15 15 15 15 15 16 16 17 17
1 2 6 5 2 2 1 6 9 5 5 3 2 1 0 2 4 3 5 7 1 1 3 1 1 1 4 6 4 8 6 4 4 3 3 4 6 6 5 5 5 5 5 5 4 4 4 3 0 5 5 4 3 3 3 5 7 7 7 7 7 7 7 7 8 9 9 8 9 8 8 8 8 9 8 9 10 9 9 9 10 10 12 12 12 13 14 15 15 15 15 15 15 16 16 17 16
4 6 4 3 3 4 3 1 2 3 5 4 2 2 4 1 1 4 3 1 2 1 1 2 3 1 1 7 2 6 8 6 4 4 5 6 4 5 5 5 5 5 4 5 5 5 4 2 1 1 5 3 4 3 4 3 4 6 7 6 8 8 8 8 8 9 9 9 9 8 8 7 7 6 8 7 9 10 9 7 8 8 11 12 11 12 14 14 15 15 15 14 14 15 15 15 15
2 4 3 4 2 3 3 3 5 4 3 3 2 1 2 2 0 0 0 1 6 0 3 0 1 1 1 2 4 5 7 7 6 5 6 4 5 4 4 4 3 3 3 5 4 3 3 3 2 3 1 5 5 3 4 4 4 7 5 7 9 7 8 9 9 9 8 8 8 8 7 6 4 4 5 4 7 6 8 8 8 8 10 10 10 11 12 13 14 14 14 14 14 13 12 14 13
2 2 6 3 2 3 5 6 9 1 4 4 3 4 6 2 0 1 1 7 3 1 3 4 2 2 1 2 2 3 6 9 6 9 6 5 4 3 3 1 2 4 2 2 3 2 2 3 4 4 3 3 1 3 3 3 3 5 5 4 3 3 4 6 6 5 5 5 7 6 4 4 3 4 4 4 4 5 6 8 7 7 8 7 8 10 11 11 11 12 12 13 13 12 11 8 8
4 2 3 6 4 2 6 3 6 2 3 5 3 2 5 5 6 1 2 0 0 1 1 3 1 2 3 2 3 5 7 8 6 7 8 8 7 8 6 3 3 2 2 1 1 4 3 2 3 3 2 3 1 2 3 3 4 4 3 5 3 3 4 4 4 5 3 4 4 4 4 3 4 4 3 4 4 5 6 7 7 7 7 7 7 9 10 11 11 11 12 12 12 11 8 7 7
1 3 2 2 7 2 4 4 5 5 2 5 4 1 2 1 3 1 2 3 0 5 3 1 1 3 4 1 1 5 6 6 5 7 7 6 5 7 6 5 4 4 3 1 1 3 3 3 3 1 3 3 3 1 3 4 3 4 4 3 4 4 3 3 3 4 3 3 3 3 3 3 3 3 5 7 6 4 3 5 8 7 8 9 10 7 9 10 11 12 12 11 8 5 6 6 7
1 3 2 2 4 1 1 4 3 3 4 4 4 1 1 1 3 1 3 4 4 5 6 8 10 8 9 5 4 6 7 7 5 6 6 5 4 3 5 6 6 4 3 1 1 1 2 3 3 4 4 3 4 2 2 5 4 5 3 3 3 3 3 3 3 1 3 3 3 3 3 4 4 4 4 4 3 4 4 3 4 4 4 4 6 4 4 5 5 6 6 6 6 6 6 6 6
3 1 1 2 2 0 2 2 1 3 2 6 1 4 3 1 0 2 7 5 7 7 7 10 7 10 11 10 8 5 7 8 7 7 8 8 8 7 3 2 1 1 0 1 2 1 2 2 2 2 2 2 1 2 2 4 6 6 4 4 4 3 3 3 4 3 3 4 4 3 3 4 3 4 4 4 3 5 5 4 4 4 4 3 3 5 5 5 5 5 6 6 6 6 6 6 6
2 1 0 2 2 0 1 1 3 4 2 4 3 3 2 1 1 1 6 8 4 4 2 4 5 8 8 5 7 8 8 9 9 10 9 8 7 5 6 4 5 5 2 3 1 2 3 2 2 2 2 2 2 2 2 3 3 6 6 5 4 3 3 4 4 3 3 3 3 4 4 3 3 4 5 5 7 5 5 4 4 4 4 3 3 5 5 5 5 5 6 5 5 6 6 6 6
6 2 0 0 2 3 2 1 4 1 9 5 4 1 2 2 3 1 3 7 5 3 3 3 4 6 7 10 7 11 12 11 10 7 7 8 8 8 6 6 3 1 2 3 2 2 2 3 2 2 2 1 3 2 2 4 3 5 5 6 4 4 4 4 4 4 4 4 4 2 3 3 5 4 3 3 2 3 4 3 4 4 4 4 2 4 5 5 5 5 5 4 7 6 7 6 6
2 1 1 1 1 2 0 0 0 1 2 1 3 2 2 5 2 1 6 9 2 1 2 4 6 7 6 7 8 6 6 5 6 4 2 2 4 3 2 2 2 2 3 2 2 2 3 3 2 2 2 3 3 2 2 3 3 4 5 5 4 5 4 5 5 4 5 4 4 3 2 5 4 4 5 3 3 3 3 3 3 3 4 3 4 4 4 5 5 5 5 4 5 6 6 6 6
1 1 2 0 0 1 0 0 1 1 1 1 2 3 3 3 3 4 11 3 1 2 5 5 7 7 8 8 7 8 8 8 5 6 6 3 3 5 4 4 3 4 4 3 2 3 3 3 3 4 3 4 3 3 3 4 3 4 5 5 4 6 5 7 4 5 5 4 4 3 4 1 5 5 5 5 5 4 4 5 3 3 4 4 5 5 4 4 5 6 5 5 6 6 6 6 6
2 2 1 1 0 2 0 5 2 2 1 1 4 2 2 3 2 9 2 1 4 5 4 2 7 9 7 6 5 5 7 9 9 4 4 3 4 6 5 4 4 4 3 3 2 3 3 3 4 4 4 5 3 4 4 5 5 5 6 4 4 6 5 8 3 6 5 5 6 5 5 4 5 6 6 6 5 5 5 5 4 3 5 4 6 6 4 5 5 6 5 4 6 7 6 5 6
3 1 0 0 7 2 1 1 2 1 2 5 5 4 1 2 2 10 2 3 3 7 4 5 4 5 5 5 5 4 4 4 4 6 10 9 9 7 7 6 5 4 4 3 3 3 3 3 4 4 4 5 5 5 5 6 6 5 7 6 5 4 6 7 6 6 4 4 6 6 4 5 5 5 6 6 6 6 6 6 5 5 5 5 5 6 7 5 6 7 6 6 6 7 7 6 6
0 1 1 3 6 3 1 4 2 4 2 4 4 0 3 1 8 7 2 2 2 5 6 5 5 5 4 4 4 4 6 5 4 6 8 6 3 4 6 4 5 4 3 3 3 2 2 2 2 3 4 5 6 6 6 6 6 5 8 6 4 2 4 7 5 7 3 3 4 5 4 5 5 6 5 6 6 6 7 7 7 6 5 7 7 8 8 6 7 7 6 5 6 6 8 7 7
0 5 1 5 6 4 1 0 1 5 1 4 3 4 7 9 13 2 0 6 3 3 5 5 5 4 4 4 5 5 5 5 7 9 6 5 4 5 5 5 4 4 4 4 2 3 2 1 1 2 4 6 6 6 7 7 4 6 6 5 3 0 5 8 4 7 5 4 5 5 5 5 5 6 7 6 6 6 7 7 8 6 5 6 7 6 7 5 6 7 6 7 5 7 8 6 7
1 1 3 0 3 4 1 1 1 5 1 3 1 4 7 7 6 5 3 5 9 7 7 6 5 5 5 5 6 8 8 8 8 7 6 5 5 4 5 4 4 4 2 4 4 3 1 1 1 2 5 7 7 7 9 8 4 6 6 4 3 3 6 6 6 6 4 5 5 4 5 6 6 7 6 8 7 6 7 6 7 6 4 6 6 5 6 6 7 6 4 8 6 7 7 6 8
2 1 3 4 3 4 7 2 5 5 1 1 1 3 9 9 10 4 2 4 5 8 7 7 7 7 7 6 7 8 8 5 6 6 6 6 6 6 5 5 4 4 4 5 3 2 2 1 2 4 6 8 7 7 7 8 5 7 6 4 5 4 6 6 7 6 5 5 5 5 5 6 6 6 6 5 7 6 7 7 6 5 4 6 6 6 6 7 6 6 5 5 9 6 8 7 6
5 1 3 1 0 5 8 0 1 1 2 1 3 6 3 4 3 3 2 5 5 6 6 7 9 9 8 8 8 6 5 7 6 7 7 6 6 5 5 5 5 5 4 5 4 3 3 2 3 6 8 9 9 8 8 8 6 9 7 6 6 6 6 5 5 6 6 5 4 5 5 5 6 6 6 4 8 7 7 7 6 5 4 7 7 6 7 4 6 7 7 6 6 7 9 9 8
3 2 3 4 2 2 2 5 1 0 2 4 1 3 7 3 3 1 1 4 5 6 10 9 9 8 8 6 6 8 8 8 12 10 9 6 6 6 5 5 5 5 4 4 4 4 4 3 3 5 8 7 8 8 6 9 4 8 7 6 7 8 7 4 4 7 6 4 4 5 5 6 6 6 6 6 8 6 6 7 6 5 6 7 8 7 6 5 5 7 9 6 5 8 8 9 9
3 2 1 5 1 3 4 1 0 3 1 2 1 5 12 13 9 6 5 4 6 10 12 10 8 8 8 9 8 10 10 10 15 8 7 7 6 5 5 4 5 5 4 4 4 4 4 4 4 5 8 8 8 7 9 9 8 8 6 6 8 7 6 4 4 7 5 5 4 5 6 6 6 6 6 7 8 7 7 6 7 5 6 7 8 8 7 7 7 7 11 9 8 7 8 7 9
2 6 5 3 3 3 3 6 3 6 3 5 5 7 10 12 12 9 5 5 9 12 8 7 8 8 9 10 10 9 12 15 8 6 7 7 6 7 6 4 5 5 4 4 5 5 5 5 4 4 6 7 7 6 7 5 7 7 6 5 8 6 6 6 6 7 5 5 4 5 6 6 6 6 6 7 8 7 7 6 8 5 5 7 9 8 7 6 9 11 9 11 11 9 7 6 7
4 3 2 3 3 5 4 4 5 1 0 7 9 9 9 11 10 12 3 4 5 9 10 11 11 10 10 11 12 14 12 16 4 7 8 8 8 7 6 5 6 6 6 6 6 6 6 7 7 7 5 7 7 6 7 8 9 5 1 6 7 1 4 6 8 7 6 5 6 6 6 6 6 7 6 7 8 8 7 6 8 6 5 7 8 7 6 7 6 8 8 6 10 11 6 4 3
1 2 1 5 2 7 5 2 2 1 4 3 3 5 11 13 13 12 2 4 9 13 14 14 15 13 12 13 14 14 14 1 5 6 7 7 7 7 7 6 7 10 8 8 8 8 7 7 8 8 6 6 5 8 8 6 5 4 7 5 4 4 4 6 8 6 5 5 6 5 6 6 6 7 6 7 7 8 8 7 7 6 6 7 8 6 6 6 6 7 9 9 5 6 4 3 2
1 2 2 2 7 5 10 5 2 2 3 9 5 6 11 12 12 10 7 10 10 11 14 17 14 13 13 13 14 12 6 9 6 8 7 8 8 9 8 7 9 9 8 9 8 8 8 8 7 8 8 7 6 4 4 5 4 4 4 7 5 5 5 5 7 6 5 6 6 5 5 6 6 6 7 6 7 6 7 8 7 6 6 7 9 7 6 7 5 6 5 11 8 4 4 4 4
4 1 1 7 3 1 6 1 2 1 4 2 1 4 9 10 9 12 13 11 10 11 12 13 11 14 16 17 15 12 14 12 13 13 13 10 10 9 8 9 10 9 8 8 9 10 8 8 8 8 9 8 7 5 6 7 8 9 8 7 5 3 6 6 7 6 6 8 8 5 4 5 6 7 6 7 7 7 7 8 7 6 6 4 8 9 7 7 6 6 7 6 10 7 3 4 4
3 5 5 3 4 7 7 5 3 1 2 1 5 8 9 10 14 10 8 4 6 14 9 10 13 13 14 7 6 12 15 13 12 9 8 10 11 13 14 11 9 11 10 10 10 10 8 10 9 9 8 7 6 8 7 9 10 10 8 9 8 9 7 6 7 6 5 5 6 5 4 4 5 7 6 6 7 8 7 7 7 6 7 5 7 8 7 6 5 4 5 5 4 9 5 2 5
3 6 11 10 7 7 5 3 4 6 4 3 1 5 5 5 6 10 10 5 6 7 7 15 17 15 10 12 17 8 8 9 14 16 16 16 14 9 9 12 13 11 12 10 9 9 9 9 10 9 7 7 8 9 10 10 10 12 10 10 8 5 7 5 7 9 7 6 6 2 4 4 5 6 5 7 7 7 8 7 6 7 7 6 7 8 7 6 6 6 3 7 6 4 10 5 4
1 6 10 12 9 6 2 1 2 3 3 1 1 4 10 1 7 5 5 2 10 10 7 13 12 12 8 12 12 9 11 8 7 8 9 11 12 12 12 13 14 13 11 8 8 9 9 9 9 9 8 8 8 10 10 8 7 9 12 12 13 11 11 2 2 3 6 5 4 5 4 4 4 7 5 6 7 7 7 6 7 7 7 7 6 7 7 6 5 5 4 7 6 6 6 6 7
4 3 3 5 4 5 6 4 5 6 1 3 1 2 6 10 13 5 8 8 8 11 13 14 14 11 10 10 10 9 10 11 12 14 15 15 14 16 19 18 14 13 10 9 9 9 11 10 9 9 7 8 8 9 10 8 11 9 8 6 8 10 10 10 6 5 4 5 6 5 5 5 4 4 7 6 6 6 7 7 7 7 8 6 6 7 8 5 6 5 5 5 5 3 6 9 6
4 1 6 5 7 5 2 3 3 1 2 8 2 0 4 6 6 2 1 5 8 15 16 16 16 13 10 10 11 11 10 11 12 12 14 16 18 17 13 13 11 9 10 11 10 9 9 9 9 9 9 9 8 10 10 8 7 9 10 10 8 4 6 8 7 4 6 5 7 5 5 5 5 5 5 6 6 6 6 8 7 7 8 6 7 7 6 5 7 7 6 6 6 6 5 4 6
2 5 7 7 7 6 3 3 3 2 1 9 5 3 4 15 5 1 3 1 9 13 15 15 14 11 8 9 8 6 5 6 8 11 11 12 11 10 8 7 9 9 8 8 7 8 9 9 10 11 11 9 9 10 9 9 8 7 8 9 13 9 7 6 7 9 7 6 7 6 5 6 5 6 5 4 6 6 7 6 7 8 8 7 6 7 6 7 6 6 5 6 6 8 5 5 6
6 4 6 5 8 4 3 6 2 2 4 11 7 8 8 11 3 8 5 7 10 11 8 8 8 7 8 6 5 4 6 6 7 6 6 6 5 7 7 11 11 8 8 9 8 9 9 10 11 11 12 10 11 11 10 9 8 8 10 12 14 15 11 11 10 8 7 6 8 7 7 6 5 6 6 5 6 6 6 5 7 7 6 6 7 6 6 7 6 7 6 6 7 8 6 8 7
6 2 3 3 3 6 2 4 4 1 8 3 6 8 9 11 5 6 8 5 5 9 10 9 8 8 7 4 4 4 4 5 5 6 6 8 8 8 8 11 12 11 10 10 10 9 10 9 10 11 10 12 12 11 10 9 10 9 9 13 15 15 15 11 13 13 10 10 9 10 7 6 6 5 6 6 6 5 6 6 6 7 7 6 6 5 6 7 6 6 6 6 6 6 6 7 6
4 5 6 4 4 6 3 3 2 6 8 1 2 5 2 16 13 4 6 11 14 10 10 9 8 9 7 4 4 3 3 4 6 7 8 9 12 13 13 12 12 13 13 13 12 11 10 10 11 12 12 11 11 11 11 11 10 10 11 10 13 13 14 14 13 12 11 10 9 10 10 9 7 7 6 8 6 6 7 8 7 7 6 5 6 6 6 7 7 7 7 7 6 6 6 6 6
5 8 7 6 0 1 5 5 2 6 6 4 0 1 7 2 7 16 21 18 16 9 7 9 9 11 9 5 3 3 4 5 6 7 8 10 11 11 12 13 14 13 13 13 12 12 11 11 12 13 12 11 10 10 11 12 11 10 10 11 11 12 12 13 12 13 11 9 8 10 10 10 10 10 9 9 8 7 6 6 6 6 6 6 6 7 7 6 6 7 7 8 7 5 6 6 7
10 3 11 9 9 7 4 5 6 6 4 2 3 1 7 5 4 1 11 10 8 10 6 5 8 8 6 5 4 2 4 5 6 8 10 11 11 12 12 12 13 13 13 13 12 12 11 11 12 13 12 11 11 12 10 12 10 10 10 9 10 10 11 10 10 10 11 11 9 9 8 8 9 9 9 7 7 7 6 6 6 7 7 7 6 7 7 6 6 7 7 8 7 6 6 7 6
1 2 6 4 10 7 8 4 3 1 3 5 2 7 4 6 3 6 5 6 9 7 9 9 14 6 3 4 6 6 6 6 6 7 8 8 8 9 10 11 11 11 13 12 12 11 11 11 12 13 14 12 11 11 10 11 10 9 10 10 9 9 8 8 7 7 7 8 9 9 9 7 6 7 6 8 6 7 7 7 6 7 6 6 6 7 7 7 7 8 7 7 8 4 7 7 6
4 6 8 6 2 5 2 2 2 1 2 14 4 8 7 8 9 12 12 7 11 4 7 7 14 5 1 7 6 6 7 6 7 9 8 8 7 8 10 10 10 11 12 13 13 13 14 12 13 13 12 11 12 12 11 10 10 10 10 10 9 8 9 10 10 10 9 7 7 6 8 7 7 7 8 6 8 6 7 7 8 7 7 6 7 6 6 6 7 7 8 8 8 5 6 7 6
8 4 8 2 2 4 4 5 3 3 4 8 4 9 4 1 12 3 1 8 13 7 9 11 9 4 6 9 6 7 8 8 6 5 5 7 8 10 9 9 10 12 13 12 13 12 11 12 13 13 12 14 12 11 10 10 11 11 10 10 8 9 10 8 9 10 8 8 7 6 5 7 8 7 7 7 7 7 6 7 8 7 6 6 7 6 6 6 7 7 7 6 6 6 7 5 5
6 5 5 7 4 3 2 3 6 1 6 8 5 3 8 10 10 0 3 8 12 12 14 10 10 9 10 9 6 5 5 5 6 7 7 8 10 10 11 11 9 8 8 10 11 11 10 10 11 12 14 13 12 9 8 7 9 9 9 11 11 9 7 8 7 8 8 9 9 8 8 8 7 7 8 8 8 7 7 7 7 7 7 7 5 6 6 6 7 8 6 7 5 6 7 7 5
1 3 3 1 3 1 5 7 2 4 6 3 9 5 12 8 8 12 13 12 13 12 8 9 13 12 9 9 7 6 8 8 7 7 8 8 9 10 11 12 12 12 11 9 10 9 11 10 11 10 10 10 10 10 10 10 9 9 10 9 9 9 9 8 9 10 9 9 9 10 9 9 9 7 7 8 8 8 8 8 7 8 7 6 6 5 6 7 6 7 7 7 6 6 7 7 5
2 2 4 1 0 1 4 0 4 4 4 4 4 12 6 6 7 11 14 12 12 10 11 10 10 9 9 9 7 5 6 6 7 8 9 10 10 9 9 9 9 7 6 7 9 12 11 10 11 11 13 12 12 12 11 11 10 9 11 12 11 9 10 8 8 8 9 9 8 8 8 8 7 7 8 9 9 9 8 8 8 8 8 8 7 7 5 6 7 7 6 7 6 6 7 5 6
14 16 15 16 11 6 4 8 2 1 2 6 2 15 12 4 5 9 6 6 7 11 9 8 7 8 9 5 4 5 6 8 8 9 8 8 8 8 7 6 6 7 8 9 7 7 10 11 11 11 11 12 13 11 11 11 10 10 12 11 11 9 9 9 10 10 9 9 9 9 8 8 9 8 8 9 9 8 7 8 8 8 7 7 7 7 6 6 7 7 6 5 7 7 7 5 5
Wind_Direction
319 336 327 3 58 89 33 2 111 336 61 15 79 18 191 39 202 72 166 342 55 303 305 37 54 60 197 181 147 143 186 127 210 130 210 237 271 292 245 165 156 135 145 149 156 164 170 163 145 137 134 126 123 122 121 120 116 113 113 110 109 106 103 101 99 97 96 93 91 90 88 86 86 89 87 84 80 76 72 68 64 61 57 53 51 52 53 54 55 58 59 59 57 56 56 57 57
302 336 11 26 58 54 215 121 98 7 40 63 263 93 206 297 79 181 182 183 208 120 168 85 73 69 72 103 113 97 42 53 183 198 260 237 315 354 311 167 157 148 148 146 157 158 148 149 139 137 136 129 125 124 124 123 118 115 115 113 111 109 106 104 103 100 96 94 93 91 91 89 88 91 89 87 85 79 73 68 64 60 57 53 50 50 51 54 55 57 59 62 62 61 61 60 59
325 7 26 34 32 76 96 36 189 66 96 107 266 201 336 158 172 207 213 169 144 153 118 95 94 82 45 60 32 63 255 19 355 220 218 340 104 280 267 176 161 147 148 147 145 149 148 144 138 147 139 136 133 129 127 124 121 120 119 117 115 113 109 106 105 105 103 100 99 96 92 92 92 90 89 87 84 80 75 68 63 60 57 54 52 50 50 53 54 54 56 58 60 63 65 64 63
52 42 120 66 235 31 57 31 81 123 115 197 171 270 191 184 199 194 219 186 171 143 220 32 53 267 119 73 139 105 42 8 175 171 74 107 181 254 271 142 137 139 137 145 140 144 146 151 142 150 146 142 140 136 130 127 126 126 122 121 122 122 115 110 109 111 109 106 101 97 94 92 91 89 89 87 81 76 70 65 62 59 57 55 54 53 53 52 53 53 54 56 59 62 64 63 63
55 8 83 103 114 1 100 109 136 102 136 197 163 267 255 209 197 208 265 234 248 205 208 132 70 338 134 125 194 132 220 266 325 180 254 263 278 265 242 150 133 147 146 141 139 144 153 150 148 152 147 143 140 135 134 132 132 129 127 126 127 123 116 114 112 108 108 105 101 98 97 94 94 92 86 83 82 75 67 63 60 57 55 56 56 56 56 56 55 54 55 57 62 64 62 61 68
61 47 14 91 35 148 58 66 66 104 220 153 127 230 215 207 196 194 285 345 257 165 187 81 162 195 16 325 175 73 234 82 283 285 175 259 318 288 208 149 145 153 151 137 142 150 150 152 142 149 152 146 141 134 130 132 133 132 135 131 128 125 120 119 117 111 107 104 102 101 100 99 98 96 91 88 85 76 68 65 62 59 57 56 59 62 62 60 59 58 57 61 66 67 66 65 66
269 51 354 26 22 49 172 123 152 166 224 163 194 194 195 207 224 127 182 40 349 52 310 156 131 97 63 306 1 231 203 243 33 303 182 299 295 280 167 154 148 153 152 140 139 147 155 149 150 146 152 145 132 129 134 132 131 136 138 137 132 130 127 124 121 117 110 107 105 105 106 106 102 99 97 92 86 80 74 71 67 64 62 58 59 64 67 65 64 62 62 64 67 68 64 62 62
50 131 315 97 322 50 48 168 146 164 189 175 236 165 202 209 184 152 170 107 205 107 20 122 58 102 260 39 191 277 350 129 251 286 308 319 325 134 151 144 151 151 145 129 138 139 159 154 150 143 145 150 129 138 136 130 132 130 137 139 132 130 131 128 123 120 116 110 110 110 110 109 109 106 105 99 94 89 82 76 72 69 64 61 62 66 70 70 69 67 67 68 70 70 59 59 62
357 89 339 69 51 28 60 72 257 228 296 220 278 243 257 193 153 136 78 262 78 61 142 209 246 80 226 40 171 279 300 328 335 317 19 357 1 142 141 143 148 137 129 123 122 129 152 168 150 151 146 146 140 146 144 134 132 134 140 135 136 137 134 131 126 124 118 115 114 114 115 114 113 114 111 111 108 100 93 83 76 71 67 65 65 69 71 71 71 69 69 70 69 66 61 61 63
40 73 234 110 134 69 36 322 89 197 232 230 192 231 188 182 177 113 144 88 150 84 285 306 125 106 133 137 315 333 288 333 304 8 16 1 340 108 121 136 147 138 129 123 126 133 148 174 156 151 151 150 150 150 149 141 138 138 143 140 138 141 136 137 135 131 127 123 122 123 122 121 122 123 121 120 114 105 98 88 78 75 71 67 68 71 72 70 70 70 71 72 70 66 63 62 63
341 16 136 74 39 114 151 208 264 314 274 332 301 244 225 140 135 110 333 147 173 169 210 152 43 135 101 236 206 247 306 341 61 17 343 354 11 85 98 89 111 131 128 125 123 117 137 156 160 152 155 156 158 153 144 146 149 153 154 148 149 146 142 142 142 137 134 129 129 129 129 129 130 130 129 121 114 112 104 94 82 77 74 70 71 73 74 72 70 70 71 72 71 67 64 63 64
8 27 10 101 154 152 220 157 214 255 299 341 209 276 219 160 128 99 137 112 156 22 167 134 203 150 67 9 291 277 326 4 131 278 343 2 45 61 94 91 97 99 104 113 114 121 131 128 145 157 155 160 164 157 149 153 159 157 148 153 154 153 147 144 146 142 139 132 134 134 133 135 134 133 129 122 117 114 107 97 87 81 77 72 72 75 76 75 73 72 73 72 70 68 67 66 66
115 107 84 78 191 104 165 119 201 266 341 254 180 225 119 128 181 169 170 103 48 114 348 238 136 97 125 190 264 315 294 236 269 222 6 44 38 65 81 86 91 96 98 105 101 115 122 120 139 157 160 161 157 143 152 157 155 161 154 158 156 152 143 143 147 149 142 137 138 140 137 136 134 133 128 124 120 117 109 101 93 85 79 74 72 75 77 77 77 78 77 75 73 72 70 70 70
116 177 122 123 44 118 132 182 335 154 251 232 275 274 225 153 241 168 129 103 232 132 250 129 129 134 96 36 274 255 236 236 176 115 65 52 51 65 76 79 84 88 84 99 105 107 112 126 131 135 147 164 157 148 153 163 160 154 156 153 155 149 142 138 139 144 145 144 139 134 128 130 134 134 130 128 128 122 115 108 99 93 88 81 79 80 82 82 84 84 82 79 77 76 75 74 74
97 142 81 115 70 85 233 127 196 156 216 176 206 132 88 327 110 145 151 133 242 216 305 24 176 110 231 151 267 206 197 202 153 114 83 62 52 58 57 66 70 57 59 63 68 61 30 8 67 161 159 145 132 152 143 165 164 162 157 154 155 157 146 139 138 137 144 144 135 129 128 132 137 136 128 126 125 123 118 112 105 102 101 96 91 87 86 85 86 86 82 78 76 77 77 77 79
138 83 83 99 164 134 227 129 40 101 233 177 259 148 86 345 185 123 243 152 180 337 6 197 5 195 271 173 240 190 168 142 139 109 89 72 56 48 52 53 60 50 47 44 55 40 16 23 310 234 145 128 127 134 130 134 171 153 148 150 155 157 152 147 142 142 143 136 131 127 125 124 123 125 126 122 129 129 120 119 111 105 107 106 101 95 89 86 84 83 80 75 72 72 71 73 77
52 82 57 44 160 160 218 149 146 190 245 249 282 191 137 190 238 260 129 59 122 223 21 301 264 346 203 236 298 157 130 124 118 105 96 85 82 63 45 54 55 47 33 38 35 16 10 28 17 23 135 154 142 150 158 148 161 160 163 166 168 162 159 149 141 137 130 128 132 133 127 122 113 107 123 107 113 127 131 125 118 108 108 106 105 100 94 90 87 83 80 77 76 71 63 61 62
55 65 117 82 195 146 201 173 187 212 142 218 189 202 117 161 318 198 63 32 70 2 58 316 346 19 259 295 12 89 127 126 134 125 129 132 133 120 113 84 101 127 37 14 14 14 20 14 6 35 7 22 87 137 143 164 149 171 157 163 166 146 132 123 127 133 140 131 132 137 123 125 98 106 113 107 94 123 130 125 113 105 105 104 107 103 98 93 89 84 80 80 76 68 62 63 58
89 122 89 183 190 228 146 204 199 118 234 176 190 150 149 202 143 236 117 279 64 83 334 17 352 339 28 34 53 109 133 136 146 143 150 156 165 163 168 165 143 138 135 43 341 348 10 333 11 24 355 21 332 178 151 154 164 162 142 164 146 134 114 131 123 134 130 128 132 136 110 111 107 106 102 123 115 126 132 125 112 108 103 98 98 94 95 90 85 83 83 83 76 68 65 67 66
195 111 81 246 205 241 209 178 201 214 124 155 174 209 150 245 144 113 199 174 79 185 181 332 235 220 201 217 128 138 141 151 153 153 160 165 173 167 166 173 180 197 183 237 300 321 346 360 352 244 12 350 35 244 177 146 173 160 171 128 153 139 114 134 129 135 123 116 111 103 131 138 130 119 113 116 116 118 125 136 117 98 88 75 66 64 64 68 74 77 78 75 72 72 73 68 68
230 69 158 204 182 106 241 165 240 226 170 158 142 75 149 266 211 157 161 111 253 259 226 172 200 202 196 202 183 157 153 159 167 165 163 176 185 194 184 180 179 189 204 291 310 296 333 339 345 351 5 22 10 335 222 175 165 174 120 140 120 108 112 128 111 136 128 121 109 136 141 117 124 91 119 128 131 132 132 120 96 91 90 85 88 86 83 71 72 75 65 65 66 76 72 64 72
88 83 201 182 125 45 239 196 133 123 151 107 92 131 218 67 72 124 149 178 222 210 227 217 204 174 172 180 194 166 165 167 177 177 181 180 181 186 196 212 291 259 272 190 227 301 303 323 324 325 305 36 17 289 266 200 168 154 150 143 136 110 101 123 143 156 128 139 155 156 149 131 147 132 146 149 141 144 141 132 113 108 93 99 107 103 85 87 80 79 75 70 65 72 74 72 69
82 323 333 201 198 151 248 144 211 145 116 128 144 213 72 134 257 201 172 206 229 224 262 243 201 188 172 138 149 166 172 178 183 187 179 181 185 192 193 191 177 192 205 220 276 278 296 312 321 312 304 352 280 244 245 221 185 170 155 147 149 151 153 135 139 138 135 135 146 153 152 148 125 159 152 158 148 152 149 142 134 134 126 111 99 108 95 90 91 88 83 82 82 80 71 66 67
104 160 350 72 179 204 158 178 130 162 124 199 198 70 167 138 238 128 206 246 238 294 286 223 178 137 142 150 180 176 180 180 188 187 188 185 180 186 185 184 210 190 158 233 269 272 297 295 299 321 317 294 271 270 218 182 193 164 150 155 156 138 128 125 106 103 95 74 75 89 140 146 144 140 128 109 71 135 152 146 136 134 108 105 89 94 108 93 84 87 89 86 92 78 81 74 72
85 52 205 282 122 255 309 19 52 126 150 126 119 140 235 176 189 22 250 245 269 4 79 105 124 130 141 155 169 169 171 172 177 182 174 185 181 167 192 195 180 164 191 238 260 311 283 270 286 289 265 250 246 243 163 157 161 139 122 140 140 121 118 93 101 102 95 81 71 64 94 144 124 124 119 126 108 78 91 113 145 129 107 97 95 75 85 108 97 88 87 87 86 91 85 76 77
151 178 141 326 357 331 308 35 287 230 106 103 97 254 283 255 273 258 243 256 173 103 82 120 129 140 165 176 177 172 177 183 171 170 186 170 171 158 196 192 185 192 205 212 241 275 282 286 289 271 231 225 220 160 139 137 127 107 94 112 121 113 118 95 98 106 94 108 80 79 84 41 120 122 110 101 103 84 78 72 33 93 88 84 88 87 77 92 108 97 89 92 93 86 79 79 83
143 140 159 152 282 349 200 191 244 238 256 203 179 242 252 349 97 273 345 234 134 91 105 122 151 166 177 177 184 193 177 187 182 147 120 169 194 188 192 204 195 204 191 208 249 257 260 282 273 259 237 226 172 148 141 124 112 103 107 68 106 111 118 111 95 105 105 116 115 109 111 113 117 116 114 114 115 111 98 88 81 70 87 88 102 95 74 81 87 91 95 99 93 91 77 75 82
48 117 66 10 337 269 216 333 264 111 263 175 176 227 269 310 92 239 227 164 167 134 146 154 166 175 181 189 192 201 205 197 166 161 178 183 197 191 192 189 201 199 184 213 241 253 254 256 266 244 211 185 148 137 127 115 110 111 102 87 75 103 129 113 112 96 91 117 121 118 114 122 112 98 112 121 126 116 105 96 83 79 83 78 76 99 98 90 89 87 82 82 86 89 86 72 73
351 54 323 299 355 346 322 207 231 160 249 154 166 15 282 176 227 245 282 142 144 146 165 182 186 192 196 203 205 209 209 199 186 196 205 201 178 189 194 205 185 186 206 208 239 272 263 268 233 212 182 152 142 131 112 95 102 112 98 100 97 113 117 97 99 95 67 60 77 89 91 96 97 108 98 107 104 102 107 100 92 85 93 101 97 97 98 102 93 89 78 76 78 88 85 77 80
77 39 80 334 358 330 295 247 340 154 240 155 164 274 262 244 241 257 149 146 113 134 188 204 209 205 214 211 211 220 227 204 209 211 202 201 196 194 197 206 207 181 181 234 252 239 247 267 225 193 159 135 123 112 107 96 92 104 90 92 72 150 96 89 94 83 73 61 63 68 81 78 92 98 107 94 94 103 105 105 108 97 95 100 101 99 94 88 88 85 93 85 74 84 87 84 97
151 271 64 172 12 273 288 70 156 153 192 180 72 211 277 275 277 267 222 176 163 194 210 213 216 222 221 219 218 217 223 211 210 208 213 205 200 196 196 195 209 181 192 220 215 215 222 185 176 136 120 111 107 107 108 101 93 99 95 84 78 62 86 98 95 81 93 83 80 76 88 98 96 102 108 116 109 105 102 103 100 107 111 100 89 74 93 85 86 80 92 96 83 79 81 86 97
21 45 289 325 154 278 296 245 173 156 318 350 107 280 251 263 272 303 231 190 182 209 212 218 219 220 221 222 223 227 228 223 233 224 214 205 192 191 188 190 199 174 197 203 219 215 154 135 127 127 114 110 100 104 106 106 98 90 78 75 84 51 91 87 95 102 89 84 85 88 73 89 96 95 101 112 111 105 103 96 86 99 110 96 85 83 84 91 95 87 41 91 101 83 95 80 79
352 115 272 265 51 266 335 24 264 235 112 356 171 232 325 312 294 318 148 177 199 220 235 228 227 227 224 224 223 231 242 245 242 229 218 201 199 187 186 185 187 181 192 201 202 176 141 131 134 128 119 117 107 105 101 95 102 94 84 72 86 85 70 95 96 100 90 83 83 86 78 77 79 82 80 84 101 101 102 101 98 92 94 91 89 83 78 56 94 93 63 34 90 108 96 93 80
294 22 213 206 186 260 254 305 284 246 124 205 283 224 237 235 279 342 239 183 190 227 241 237 231 230 228 230 230 227 227 228 227 214 212 199 194 192 188 189 178 190 192 186 202 172 152 147 132 131 118 117 115 117 107 102 90 95 97 96 81 71 76 64 98 97 88 83 85 87 83 82 81 88 93 99 93 92 99 104 101 97 95 91 90 84 81 75 73 92 86 47 59 100 99 102 97
217 202 289 288 276 206 249 330 247 125 2 197 286 241 269 268 269 257 217 191 194 226 228 233 232 233 233 228 226 227 227 225 230 202 190 191 190 192 188 193 178 201 185 181 187 151 136 129 121 129 123 124 115 116 105 106 103 87 94 99 96 85 73 56 91 89 87 85 84 92 95 95 93 95 102 103 106 105 99 97 98 84 92 100 96 89 83 84 84 79 100 88 64 63 95 96 106
192 170 185 171 191 236 209 239 275 178 201 235 213 227 251 262 271 266 213 198 201 232 249 265 248 235 233 229 230 226 226 234 220 179 179 184 186 183 184 187 189 190 182 176 174 156 151 139 132 119 129 125 118 114 117 123 103 117 117 107 80 80 85 87 55 78 94 94 90 95 96 95 95 98 100 102 107 108 106 103 98 86 94 100 98 96 93 93 105 99 90 104 96 76 60 77 99
98 95 118 206 208 283 281 267 261 261 73 233 228 238 249 265 262 267 236 185 234 252 254 244 244 236 230 230 227 227 223 232 165 181 176 181 185 184 183 179 189 183 187 179 173 169 167 157 148 144 140 133 146 133 138 139 127 114 32 91 106 69 94 105 78 63 36 80 88 90 97 99 105 105 103 112 110 104 100 100 97 83 82 90 94 95 101 95 86 103 102 79 104 103 62 29 35
130 114 165 278 163 254 240 243 11 323 168 293 258 250 258 258 265 264 253 149 231 230 238 244 243 235 233 229 232 226 227 91 149 176 188 181 184 184 181 186 185 187 193 183 181 173 167 160 159 149 143 150 164 145 146 143 125 151 151 123 117 118 114 116 107 63 72 81 78 86 94 99 102 104 109 110 107 113 113 99 95 102 98 94 92 95 90 90 100 104 115 83 22 93 87 347 321
60 200 215 298 269 246 275 259 299 276 136 258 263 246 262 260 259 265 243 224 238 227 222 231 230 237 236 233 233 231 202 213 186 199 181 189 185 184 184 191 192 194 187 188 180 169 169 167 167 159 155 157 161 143 149 133 92 57 94 125 133 108 37 23 62 79 80 84 59 57 84 98 106 103 107 109 111 107 109 107 103 106 102 114 106 91 92 84 85 95 103 120 104 61 91 30 7
197 127 158 234 235 21 297 299 359 183 172 254 40 308 276 275 260 254 250 228 240 245 237 244 234 235 235 230 224 217 216 206 200 192 193 187 187 186 184 192 191 188 182 188 185 179 172 173 168 168 160 159 153 122 97 79 86 84 73 77 66 54 118 88 82 83 91 88 58 62 46 94 103 107 104 108 106 105 109 111 115 108 99 100 113 110 98 94 94 96 100 103 121 106 58 33 6
252 191 199 228 225 232 191 252 310 305 326 45 300 291 279 250 263 267 259 273 260 262 255 253 250 239 246 263 257 218 218 204 201 189 188 184 189 196 192 185 181 191 188 190 186 181 177 174 167 169 162 154 133 123 119 119 109 95 94 87 88 91 71 86 98 75 51 72 79 77 78 86 103 104 103 107 113 112 107 111 114 111 109 105 105 104 101 109 103 104 112 109 113 132 119 125 26
292 229 197 213 213 231 263 323 359 1 334 342 78 325 286 281 267 256 275 333 292 261 248 253 252 249 239 241 243 231 228 202 195 193 191 191 193 183 184 185 191 192 192 191 186 178 172 171 167 165 154 140 139 135 138 140 140 136 135 130 125 113 119 144 149 145 147 137 130 133 82 79 102 101 105 109 108 112 111 115 118 115 106 99 97 102 112 104 98 97 109 123 103 92 129 119 93
184 270 199 212 213 210 217 231 79 296 247 295 37 216 280 328 278 246 276 280 265 278 245 254 256 256 245 238 243 226 214 204 200 191 183 184 192 187 189 191 195 191 191 175 176 177 172 169 168 160 153 143 144 147 152 149 139 153 154 155 149 151 143 154 43 85 125 118 118 115 105 82 86 113 106 108 108 110 115 116 112 107 107 107 108 107 102 105 106 97 103 95 113 132 119 108 121
234 250 168 190 168 184 213 173 182 241 256 291 45 130 265 294 271 206 220 237 262 273 271 266 259 250 240 239 238 225 214 201 191 193 192 193 187 188 190 192 189 190 175 169 174 174 173 170 160 156 146 146 152 153 158 163 156 159 146 138 140 146 154 148 147 121 110 125 120 118 110 96 87 96 113 105 112 118 118 112 112 110 107 104 107 103 111 114 96 70 74 87 81 72 109 125 143
217 225 140 157 178 189 140 168 189 213 28 284 317 298 307 237 270 328 328 258 271 261 260 261 262 260 253 249 239 229 215 204 192 189 192 190 192 197 190 184 186 174 173 178 177 172 163 158 155 150 151 150 158 163 160 169 172 159 150 140 123 94 118 132 130 125 130 133 118 114 110 109 100 84 95 115 117 119 117 120 117 114 112 111 107 105 103 104 107 111 98 85 87 64 65 99 107
252 127 88 81 77 70 106 98 118 330 64 261 238 168 226 271 209 171 354 215 257 255 254 257 263 266 261 253 253 239 221 204 203 202 194 195 193 188 182 165 169 184 174 168 164 159 160 157 159 158 158 158 160 166 169 169 166 154 145 147 137 134 130 125 136 135 141 144 132 131 126 122 120 110 101 107 109 109 114 117 120 118 118 117 110 115 115 102 97 93 97 105 104 91 64 79 102
130 93 72 21 40 30 21 63 80 35 256 247 222 206 179 284 186 182 164 209 215 245 271 273 277 282 267 257 259 226 209 200 198 193 186 180 165 164 163 175 178 170 170 167 164 167 161 164 163 167 164 159 165 169 171 169 163 161 155 153 146 144 150 146 142 148 146 149 145 145 141 136 133 125 121 104 104 113 113 117 119 115 112 114 116 120 120 115 111 106 103 94 88 102 102 100 90
135 110 125 56 342 10 36 340 40 185 262 226 225 205 174 227 289 276 235 261 247 217 238 261 282 274 274 285 266 239 209 195 177 171 169 158 153 167 170 177 178 176 171 171 172 170 166 166 167 166 167 167 168 170 170 168 167 164 161 159 153 154 153 158 157 158 168 159 157 148 145 134 133 126 122 118 118 123 121 115 112 113 114 118 115 118 115 114 112 106 99 98 98 95 101 98 103
91 96 86 119 254 29 303 25 275 205 239 242 50 117 359 238 244 269 280 260 259 225 219 232 245 271 277 284 274 244 200 176 182 182 171 176 178 176 181 180 175 180 183 178 175 171 168 167 172 170 174 172 171 169 172 169 167 166 163 168 159 158 160 159 160 159 165 162 161 152 154 151 147 138 147 134 145 143 134 129 129 129 125 122 127 120 118 115 113 109 110 106 105 105 106 109 108
143 162 150 117 172 247 273 267 259 304 297 263 324 105 255 290 276 223 239 241 238 247 220 234 241 251 268 287 288 207 206 200 197 187 187 187 185 185 183 180 183 182 182 181 177 174 173 174 175 176 174 171 169 174 173 168 170 166 170 169 166 161 163 163 163 162 165 164 164 162 160 157 158 155 154 154 154 145 135 132 130 122 123 129 128 126 121 117 120 119 118 114 108 107 101 101 107
205 86 159 180 149 156 232 195 224 231 225 284 271 106 232 133 241 259 243 255 275 274 252 231 243 250 258 277 276 209 211 217 198 196 195 192 190 183 183 183 185 185 183 181 181 179 173 176 176 176 169 176 174 178 172 171 168 169 170 173 170 165 161 164 166 166 161 161 167 164 163 163 157 156 154 147 145 140 134 129 131 130 136 138 136 126 120 120 120 114 110 111 107 111 108 110 109
227 168 59 111 220 135 237 200 178 274 332 329 209 209 190 184 266 289 242 275 274 269 284 277 271 236 205 253 235 223 221 212 202 203 201 200 189 181 182 186 189 185 184 184 182 180 178 180 179 178 174 173 175 178 178 169 168 167 168 168 174 164 158 156 153 158 160 160 164 165 162 162 152 143 138 140 147 142 142 138 136 138 141 140 135 130 134 133 132 122 118 116 113 120 118 112 116
209 110 201 208 158 145 281 22 41 85 49 254 138 281 277 302 284 246 251 249 259 294 271 270 261 266 266 244 231 225 221 211 205 205 199 190 181 189 190 188 187 187 186 187 185 183 182 178 180 177 175 174 177 180 174 171 163 165 169 167 163 161 161 165 166 164 162 158 160 165 160 155 142 145 145 146 144 144 144 146 144 144 144 136 131 137 137 135 133 125 126 125 121 126 115 120 121
100 188 228 126 95 108 144 234 341 66 216 272 153 228 279 51 277 336 267 245 257 259 259 246 258 293 276 252 225 220 214 216 210 203 194 190 189 186 191 194 194 193 188 183 185 182 185 183 181 176 174 178 182 174 175 171 165 166 165 165 165 167 165 166 164 162 158 152 154 151 144 147 160 155 150 150 146 148 149 152 145 143 138 134 138 141 139 136 127 116 121 117 127 127 116 109 113
147 194 195 128 239 246 288 97 266 229 262 278 279 258 250 191 242 24 231 210 238 246 246 253 270 262 251 261 240 217 224 214 201 199 190 190 189 191 189 192 193 195 196 190 183 181 183 183 184 180 179 179 173 171 165 166 169 164 167 168 164 162 166 160 161 156 155 159 161 164 164 158 145 151 149 151 149 153 155 154 149 141 138 138 139 142 143 136 130 124 124 126 129 125 122 120 127
55 83 111 135 100 182 132 199 180 119 263 30 286 78 260 175 224 191 226 199 213 225 237 244 245 245 243 251 246 203 209 210 202 200 198 193 194 191 188 186 187 189 190 190 183 182 187 183 180 181 173 166 164 168 166 169 175 168 165 161 167 164 163 164 163 160 163 168 169 165 160 159 165 154 157 154 155 160 161 155 153 145 142 144 146 148 145 135 127 130 137 133 141 129 124 128 130
174 129 198 181 39 239 115 346 148 174 191 187 292 304 264 242 205 189 209 204 208 194 211 230 240 249 241 239 230 201 208 207 207 203 197 193 192 190 190 191 190 186 190 188 187 186 185 180 185 179 172 172 173 175 172 174 167 172 166 169 167 166 163 157 157 166 164 168 170 167 168 163 147 164 159 161 166 167 164 159 151 152 153 156 155 151 143 135 132 133 133 135 138 136 130 132 131
182 181 192 184 148 164 166 252 62 135 121 248 164 264 271 255 155 211 196 215 214 211 200 228 252 251 256 268 226 195 197 204 201 204 194 192 189 187 186 183 180 179 188 191 194 188 188 188 184 176 176 177 176 177 178 171 173 170 174 171 168 163 158 157 163 169 172 172 172 170 164 155 168 166 169 169 169 168 163 158 155 154 157 159 158 150 144 138 141 138 139 145 145 140 136 141 140